Location: Newark
(0.5300°S, 127.4800°E)
Time: 01:54:39
(UTC+00:00)

Vanguard 3 - Pass Details

Date: 22 September 2019
Orbit: 508 x 3262 km, 33.3° (Epoch: 18 October)

Event Time Altitude Azimuth Distance (km) Brightness Sun altitude
Rises 00:18:17 0° 299° (WNW) 5,969 11.2 43.8°
Reaches altitude 10° 00:24:22 10° 318° (NW) 5,441 11.2 45.3°
Maximum altitude 00:34:22 17° 354° (N) 5,352 11.5 47.8°
Drops below altitude 10° 00:45:42 10° 29° (NNE) 6,194 12.0 50.6°
Sets 00:53:39 0° 47° (NE) 7,110 12.3 52.6°
